Location: Ch�risy
(50.2331°N, 2.9131°E)
Time: 23:58:57
(UTC+00:00)

CZ-4C R/B - Pass Details

Date: 17 January 2021
Orbit: 617 x 1385 km, 63.4° (Epoch: 01 March)

Event Time Altitude Azimuth Distance (km) Brightness Sun altitude
Rises 17:15:18 0° 220° (SW) 3,044 6.3 -9.1°
Reaches altitude 10° 17:17:27 10° 220° (SW) 2,202 5.4 -9.4°
Maximum altitude 17:22:28 87° 132° (SE) 820 2.1 -10.2°
Enters shadow 17:28:34 10° 44° (NE) 2,655 4.2 -11.1°
